カタログに戻る

SKYSAT C9

運用中科学SSO
NORAD 42989·PAYLOAD·🇺🇸 United States

打ち上げ Oct 31, 2017 から Vandenberg Space Force Base

Loading…

次のパス (今後24時間)

TLE

最新Source: CelesTrak SupGP

元期: Sep 14, 2026, 20:49 UTC

1 42989C 17068C   26257.86789352  .00009921  00000+0  22149-3 0  2572
2 42989  97.4552  37.5798 0008242 164.2608  81.6328 15.43535012    16

AllMySatでSKYSAT C9をリアルタイム追跡

Download on the App Store